Ft Lauderdale, FL

4:05 AM EST on December 15, 2017 (GMT -0500)
Fort Lauderdale-Hollywood International

Weather History for KFLL - July, 2014

Change the Weather History Date:

Wednesday, July 30, 2014

  Actual Average Record
Temperature  
Mean Temperature 84 °F 85 °F  
Max Temperature 92 °F 91 °F 96 °F (1915)
Min Temperature 76 °F 79 °F 69 °F (1928)
Degree Days  
Heating Degree Days 0 0  
Month to date heating degree days 0 0  
Since 1 June heating degree days 0 0  
Since 1 July heating degree days 0 0  
Cooling Degree Days 19 20  
Month to date cooling degree days 593 581  
Year to date cooling degree days 2644 2542  
Since 1 June cooling degree days 1109 1124  
Growing Degree Days 34 (Base 50)    
Moisture  
Dew Point 75 °F    
Average Humidity 74    
Maximum Humidity 85    
Minimum Humidity 63    
Precipitation  
Precipitation 0.08 in 0.18 in 2.50 in (1933)
Month to date precipitation 9.18 5.80  
Year to date precipitation 38.42 33.45  
Snow  
Snow 0.00 in - - ()
Month to date snowfall 0.0  
Since 1 June snowfall 0.0  
Since 1 July snowfall 0.0  
Snow Depth 0.00 in    
Sea Level Pressure  
Sea Level Pressure 29.98 in    
Wind  
Wind Speed 6 mph (SSW)    
Max Wind Speed 23 mph    
Max Gust Speed 27 mph    
Visibility 10 miles    
Events Rain , Thunderstorm    
T = Trace of Precipitation, MM = Missing Value Source: NWS Daily Summary

Daily Weather History Graph

Daily Weather History Graph

Search for Another Location

Airport or City:

Trip Planner

Search our weather history database for the weather conditions in past years. The results will help you decide how hot, cold, wet, or windy it might be!

Date:

Astronomy

Jul. 30, 2014 Rise Set
Actual Time 6:45 AM EDT 8:08 PM EDT
Civil Twilight 6:20 AM EDT 8:33 PM EDT
Nautical Twilight 5:50 AM EDT 9:02 PM EDT
Astronomical Twilight 5:20 AM EDT 9:33 PM EDT
Moon 9:50 AM EDT (7/30) 10:17 PM EDT (7/30)
Length of Visible Light 14h 12m
Length of Day
13h 22m
Waxing Crescent, 12% of the Moon is Illuminated
Jul 30
Waxing Crescent
Aug 3
First Quarter
Aug 10
Full
Aug 17
Last Quarter
Aug 25
New

Hourly Weather History & Observations

Time (EDT) Temp. Heat Index Dew Point Humidity Pressure Visibility Wind Dir Wind Speed Gust Speed Precip Events Conditions
12:53 AM 82.0 °F 87.9 °F 73.9 °F 76% 29.98 in 10.0 mi Calm Calm - N/A   Mostly Cloudy
1:53 AM 81.0 °F 86.2 °F 73.9 °F 79% 29.98 in 10.0 mi WSW 4.6 mph - N/A   Scattered Clouds
2:53 AM 81.0 °F 86.7 °F 75.0 °F 82% 29.97 in 10.0 mi SW 5.8 mph - N/A   Scattered Clouds
3:53 AM 81.0 °F 87.3 °F 75.9 °F 85% 29.95 in 10.0 mi SW 5.8 mph - N/A   Scattered Clouds
4:53 AM 81.0 °F 87.3 °F 75.9 °F 85% 29.96 in 10.0 mi SW 4.6 mph - N/A   Partly Cloudy
5:53 AM 80.1 °F 85.4 °F 75.9 °F 87% 29.96 in 10.0 mi SW 5.8 mph - N/A   Scattered Clouds
6:53 AM 81.0 °F 87.3 °F 75.9 °F 85% 29.97 in 10.0 mi SW 3.5 mph - N/A   Scattered Clouds
7:53 AM 82.0 °F 89.4 °F 75.9 °F 82% 29.98 in 10.0 mi Calm Calm - N/A   Mostly Cloudy
8:53 AM 84.9 °F 95.3 °F 77.0 °F 77% 30.00 in 10.0 mi WSW 5.8 mph - N/A   Mostly Cloudy
9:53 AM 87.1 °F 98.8 °F 77.0 °F 72% 30.00 in 10.0 mi WSW 8.1 mph - N/A   Mostly Cloudy
10:05 AM 84.0 °F 90.2 °F 73.0 °F 69% 30.00 in 10.0 mi SSW 11.5 mph - N/A   Mostly Cloudy
10:53 AM 87.1 °F 95.4 °F 73.9 °F 65% 30.01 in 10.0 mi South 11.5 mph 18.4 mph N/A   Mostly Cloudy
11:53 AM 88.0 °F 97.5 °F 75.0 °F 65% 30.00 in 10.0 mi South 6.9 mph - N/A   Mostly Cloudy
12:53 PM 88.0 °F 96.5 °F 73.9 °F 63% 29.99 in 10.0 mi SSE 5.8 mph - N/A   Mostly Cloudy
1:53 PM 90.0 °F 102.5 °F 77.0 °F 65% 29.97 in 10.0 mi SE 15.0 mph - N/A   Mostly Cloudy
2:53 PM 91.0 °F 104.2 °F 77.0 °F 63% 29.95 in 10.0 mi SE 11.5 mph - N/A   Mostly Cloudy
3:53 PM 89.1 °F 100.2 °F 75.9 °F 65% 29.92 in 10.0 mi SSE 19.6 mph - N/A   Mostly Cloudy
4:23 PM 84.9 °F 93.3 °F 75.0 °F 72% 29.95 in 10.0 mi SSW 15.0 mph - 0.00 in Rain , Thunderstorm Light Thunderstorms and Rain
4:53 PM 80.1 °F 85.1 °F 75.0 °F 85% 29.98 in 10.0 mi NW 11.5 mph 25.3 mph 0.00 in Rain , Thunderstorm Light Thunderstorms and Rain
5:43 PM 78.1 °F - 73.0 °F 84% 29.99 in 10.0 mi SW 10.4 mph - 0.05 in   Overcast
5:46 PM 79.0 °F - 73.0 °F 82% 29.99 in 10.0 mi SW 9.2 mph - 0.05 in Rain , Thunderstorm Light Thunderstorms and Rain
5:53 PM 78.1 °F - 73.9 °F 87% 29.98 in 10.0 mi South 10.4 mph 17.3 mph 0.05 in Rain , Thunderstorm Light Thunderstorms and Rain
6:47 PM 78.8 °F - 75.2 °F 89% 29.97 in 10.0 mi SSW 6.9 mph - 0.03 in Thunderstorm Thunderstorm
6:53 PM 78.1 °F - 75.9 °F 93% 29.96 in 10.0 mi SSW 5.8 mph - 0.03 in Thunderstorm Thunderstorm
7:23 PM 78.1 °F - 75.9 °F 93% 29.97 in 10.0 mi Variable 5.8 mph - N/A   Overcast
7:53 PM 79.0 °F - 75.9 °F 90% 29.97 in 10.0 mi SSE 3.5 mph - N/A   Overcast
8:53 PM 79.0 °F - 73.9 °F 84% 29.97 in 10.0 mi SW 4.6 mph - N/A   Overcast
9:53 PM 79.0 °F - 73.9 °F 84% 29.98 in 10.0 mi Calm Calm - N/A   Overcast
10:53 PM 80.1 °F 85.1 °F 75.0 °F 85% 29.99 in 10.0 mi WSW 4.6 mph - N/A   Overcast
11:53 PM 80.1 °F 85.1 °F 75.0 °F 85% 29.99 in 10.0 mi Calm Calm - N/A   Mostly Cloudy